Content
SEND FEEDBACK

Daily
Averages
Monthly
Summary
United States of America

COLFAX, WASHINGTON


Home > North America > United States > Washington
Elevation: 2185 feet     Latitude: 46 53N     Longitude: 117 22W

WEATHER
 
SELECT A DAY
Number of Records: 188,050;   Date Range: 1/1/95 - 7/7/14
 
SHARE

PRINT THIS DATA

[ ← Previous Day ]
WEATHER ALMANAC - FEBRUARY 13, 2013
[ Next Day → ]
[ °C ]   °F
Weather ElementAverageHighLow
Temperature41.1 °F45 °F (11:53 am)34 °F (10:53 pm)
Dewpoint33.5 °F36 °F (10:53 am)28 °F (10:53 pm)
Humidity74.4 %83 % (7:53 am)66 % (1:23 pm)
Barometer30.28 in30.39 in (11:53 pm)30.19 in (2:22 am)
Wind Speed13.3 mph27.6 mph (2:53 am)
Wind Gust36.8 mph (2:53 am)
Weather ElementAverage
Visibility10 mi
Wind DirectionWSW (242.6 °)

Weather ElementTotal
Precipitation---
Heating Degree Days25.5 (Base 65)
Averaged from 27 records on February 13, 2013
WEATHER CONDITIONS BREAKOUT
WIND DIRECTION BREAKOUT
WEATHER BY HOUR - FEBRUARY 13, 2013
[ °C ]   °F
Local TimeTemperatureDewpointHumidityBarometerVisibilityWind DirectionWind SpeedGust SpeedPrecipitationEventsConditions
1:53 AM42.1 °F34.0 °F73 %30.22 in10.0 miWSW (250°)16.1 mph26.5 mphScattered Clouds
2:22 AM42.8 °F33.8 °F70 %30.19 in10.0 miWSW (250°)17.3 mph31.1 mphMostly Cloudy
2:53 AM42.1 °F34.0 °F73 %30.22 in10.0 miWSW (250°)27.6 mph36.8 mphMostly Cloudy
3:53 AM41.0 °F35.1 °F79 %30.20 in10.0 miWSW (240°)18.4 mph34.5 mphOvercast
4:53 AM41.0 °F34.0 °F76 %30.23 in10.0 miWSW (250°)17.3 mph25.3 mphOvercast
5:53 AM41.0 °F34.0 °F76 %30.24 in10.0 miWSW (250°)18.4 mph27.6 mphOvercast
6:53 AM41.0 °F34.0 °F76 %30.25 in10.0 miWSW (250°)12.7 mph24.2 mphOvercast
7:53 AM39.9 °F35.1 °F83 %30.26 in10.0 miWest (260°)16.1 mph26.5 mphOvercast
8:53 AM41.0 °F35.1 °F79 %30.27 in10.0 miWSW (250°)16.1 mphOvercast
9:46 AM42.8 °F35.6 °F76 %30.23 in10.0 miWSW (250°)15.0 mph21.9 mphScattered Clouds
9:53 AM41.0 °F35.1 °F79 %30.28 in10.0 miWSW (250°)12.7 mph20.7 mphMostly Cloudy
10:53 AM43.0 °F36.0 °F76 %30.29 in10.0 miWSW (250°)15.0 mphScattered Clouds
11:53 AM45.0 °F35.1 °F68 %30.29 in10.0 miWSW (250°)16.1 mph26.5 mphPartly Cloudy
12:53 PM44.1 °F34.0 °F68 %30.27 in10.0 miWSW (240°)15.0 mph25.3 mphScattered Clouds
1:13 PM44.6 °F35.6 °F71 %30.23 in10.0 miWSW (250°)13.8 mph20.7 mphMostly Cloudy
1:23 PM44.6 °F33.8 °F66 %30.23 in10.0 miWSW (250°)17.3 mph21.9 mphScattered Clouds
1:53 PM44.1 °F35.1 °F71 %30.27 in10.0 miWest (260°)13.8 mphPartly Cloudy
2:53 PM43.0 °F33.1 °F68 %30.28 in10.0 miWest (260°)15.0 mphPartly Cloudy
3:53 PM42.1 °F33.1 °F70 %30.30 in10.0 miWSW (250°)11.5 mphMostly Cloudy
4:53 PM42.1 °F33.1 °F70 %30.30 in10.0 miWest (260°)9.2 mphOvercast
5:53 PM41.0 °F33.1 °F73 %30.30 in10.0 miWSW (250°)9.2 mphOvercast
6:53 PM39.9 °F33.1 °F77 %30.31 in10.0 miWest (260°)5.8 mphClear
7:53 PM37.9 °F32.0 °F79 %30.33 in10.0 miWest (260°)5.8 mphClear
8:53 PM37.9 °F30.9 °F76 %30.34 in10.0 miWSW (250°)5.8 mphClear
9:53 PM36.0 °F30.0 °F79 %30.36 in10.0 miWSW (250°)5.8 mphClear
10:53 PM34.0 °F28.0 °F79 %30.38 in10.0 miVariable3.5 mphClear
11:53 PM35.1 °F28.9 °F78 %30.39 in10.0 miWest (260°)9.2 mphClear
Hourly data recorded from KPUW, located miles away from Colfax, Washington







STORIES FROM OUR PARTNERS